Time,TemperatureF,DewpointF,PressureIn,WindDirection,WindDirectionDegrees,WindSpeedMPH,WindSpeedGustMPH,Humidity,HourlyPrecipIn,Conditions,Clouds,dailyrainin,SoftwareType,DateUTC
2013-05-21 00:12:00,57.2,50.4,29.83,SE,135,0.0,-999.0,78,-99.99,,,0.00,Acu-Link.com,2013-05-21 07:12:00,
2013-05-21 00:27:00,56.5,50.4,29.82,ESE,112,0.0,-999.0,80,-99.99,,,0.00,Acu-Link.com,2013-05-21 07:27:00,
2013-05-21 00:43:00,55.9,49.8,29.82,SSW,202,0.0,-999.0,80,-99.99,,,0.00,Acu-Link.com,2013-05-21 07:43:00,
2013-05-21 00:58:00,55.4,49.3,29.83,SSW,202,0.0,-999.0,80,-99.99,,,0.00,Acu-Link.com,2013-05-21 07:58:00,
2013-05-21 01:13:00,55.2,49.5,29.83,ESE,112,0.0,-999.0,81,-99.99,,,0.00,Acu-Link.com,2013-05-21 08:13:00,
2013-05-21 01:30:00,55.0,49.3,29.83,West,270,0.0,-999.0,81,-99.99,,,0.00,Acu-Link.com,2013-05-21 08:30:00,
2013-05-21 02:33:00,54.5,49.1,29.84,East,90,0.0,-999.0,82,-99.99,,,0.00,Acu-Link.com,2013-05-21 09:33:00,
2013-05-21 02:48:00,52.9,50.3,29.82,South,180,0.0,-999.0,91,-99.99,,,0.00,Acu-Link.com,2013-05-21 09:48:00,
2013-05-21 03:03:00,52.5,49.9,29.81,SSE,157,0.0,-999.0,91,-99.99,,,0.00,Acu-Link.com,2013-05-21 10:03:00,
2013-05-21 03:18:00,52.2,49.7,29.82,SSE,157,0.0,-999.0,91,-99.99,,,0.00,Acu-Link.com,2013-05-21 10:18:00,
2013-05-21 03:33:00,52.2,49.9,29.82,SSE,157,0.0,-999.0,92,-99.99,,,0.00,Acu-Link.com,2013-05-21 10:33:00,
2013-05-21 03:48:00,52.3,49.8,29.82,NNE,22,0.0,-999.0,91,-99.99,,,0.00,Acu-Link.com,2013-05-21 10:48:00,
2013-05-21 04:03:00,52.5,50.2,29.82,NNE,22,0.0,-999.0,92,-99.99,,,0.00,Acu-Link.com,2013-05-21 11:03:00,
2013-05-21 04:19:00,52.7,50.4,29.82,South,180,0.0,-999.0,92,-99.99,,,0.00,Acu-Link.com,2013-05-21 11:19:00,
2013-05-21 04:34:00,52.5,49.9,29.81,WSW,247,0.0,-999.0,91,-99.99,,,0.00,Acu-Link.com,2013-05-21 11:34:00,
2013-05-21 04:49:00,52.0,49.5,29.82,SSW,202,0.0,-999.0,91,-99.99,,,0.00,Acu-Link.com,2013-05-21 11:49:00,
2013-05-21 05:04:00,52.0,49.7,29.83,SSE,157,0.0,-999.0,92,-99.99,,,0.00,Acu-Link.com,2013-05-21 12:04:00,
2013-05-21 05:19:00,52.0,50.0,29.84,South,180,0.0,-999.0,93,-99.99,,,0.00,Acu-Link.com,2013-05-21 12:19:00,
2013-05-21 05:34:00,52.5,50.5,29.83,SW,225,0.0,-999.0,93,-99.99,,,0.00,Acu-Link.com,2013-05-21 12:34:00,
2013-05-21 05:49:00,52.3,50.3,29.84,SW,225,0.0,-999.0,93,-99.99,,,0.00,Acu-Link.com,2013-05-21 12:49:00,
2013-05-21 06:04:00,52.7,50.7,29.85,ESE,112,0.0,-999.0,93,-99.99,,,0.00,Acu-Link.com,2013-05-21 13:04:00,
2013-05-21 06:19:00,52.5,50.5,29.86,NE,45,0.0,-999.0,93,-99.99,,,0.00,Acu-Link.com,2013-05-21 13:19:00,
2013-05-21 06:35:00,52.7,50.7,29.85,SSE,157,0.0,-999.0,93,-99.99,,,0.00,Acu-Link.com,2013-05-21 13:35:00,
2013-05-21 06:51:00,53.4,50.8,29.86,NNW,337,1.1,-999.0,91,-99.99,,,0.00,Acu-Link.com,2013-05-21 13:51:00,
2013-05-21 07:06:00,54.3,50.8,29.87,SSW,202,0.0,-999.0,88,-99.99,,,0.00,Acu-Link.com,2013-05-21 14:06:00,
2013-05-21 07:22:00,54.7,50.6,29.87,NNE,22,0.0,-999.0,86,-99.99,,,0.00,Acu-Link.com,2013-05-21 14:22:00,
2013-05-21 07:37:00,54.7,50.6,29.87,WNW,292,0.0,-999.0,86,-99.99,,,0.00,Acu-Link.com,2013-05-21 14:37:00,
2013-05-21 07:53:00,54.7,50.6,29.87,NNE,22,0.0,-999.0,86,-99.99,,,0.00,Acu-Link.com,2013-05-21 14:53:00,
2013-05-21 08:08:00,54.7,50.6,29.87,WNW,292,0.0,-999.0,86,-99.99,,,0.00,Acu-Link.com,2013-05-21 15:08:00,
2013-05-21 08:23:00,59.0,51.4,29.88,NNE,22,2.2,-999.0,76,-99.99,,,0.00,Acu-Link.com,2013-05-21 15:23:00,
2013-05-21 08:38:00,60.4,51.7,29.87,North,0,2.2,-999.0,73,-99.99,,,0.00,Acu-Link.com,2013-05-21 15:38:00,
2013-05-21 08:54:00,61.2,52.1,29.88,SSW,202,0.0,-999.0,72,-99.99,,,0.00,Acu-Link.com,2013-05-21 15:54:00,
2013-05-21 09:09:00,61.5,53.1,29.88,South,180,1.1,-999.0,74,-99.99,,,0.00,Acu-Link.com,2013-05-21 16:09:00,
2013-05-21 09:24:00,62.4,53.6,29.89,SE,135,0.0,-999.0,73,-99.99,,,0.00,Acu-Link.com,2013-05-21 16:24:00,
2013-05-21 09:39:00,63.1,53.9,29.89,East,90,0.0,-999.0,72,-99.99,,,0.00,Acu-Link.com,2013-05-21 16:39:00,
2013-05-21 09:54:00,64.4,54.8,29.89,SSW,202,2.2,-999.0,71,-99.99,,,0.00,Acu-Link.com,2013-05-21 16:54:00,
2013-05-21 10:09:00,64.9,54.5,29.88,SSE,157,3.2,-999.0,69,-99.99,,,0.00,Acu-Link.com,2013-05-21 17:09:00,
2013-05-21 10:24:00,66.0,54.7,29.88,NNE,22,2.7,-999.0,67,-99.99,,,0.00,Acu-Link.com,2013-05-21 17:24:00,
2013-05-21 10:41:00,68.4,56.2,29.88,West,270,2.7,-999.0,65,-99.99,,,0.00,Acu-Link.com,2013-05-21 17:41:00,
2013-05-21 10:56:00,68.9,56.6,29.88,South,180,5.8,-999.0,65,-99.99,,,0.00,Acu-Link.com,2013-05-21 17:56:00,
2013-05-21 11:11:00,68.4,56.2,29.88,SSE,157,3.2,-999.0,65,-99.99,,,0.00,Acu-Link.com,2013-05-21 18:11:00,
2013-05-21 11:27:00,68.4,56.6,29.88,SSE,157,6.3,-999.0,66,-99.99,,,0.00,Acu-Link.com,2013-05-21 18:27:00,
2013-05-21 11:42:00,69.4,56.7,29.88,ESE,112,5.3,-999.0,64,-99.99,,,0.00,Acu-Link.com,2013-05-21 18:42:00,
2013-05-21 11:58:00,69.4,55.8,29.87,NW,315,1.1,-999.0,62,-99.99,,,0.00,Acu-Link.com,2013-05-21 18:58:00,
2013-05-21 12:14:00,70.3,55.7,29.86,South,180,3.7,-999.0,60,-99.99,,,0.00,Acu-Link.com,2013-05-21 19:14:00,
2013-05-21 12:29:00,69.1,53.7,29.86,South,180,4.2,-999.0,58,-99.99,,,0.00,Acu-Link.com,2013-05-21 19:29:00,
2013-05-21 12:45:00,70.5,54.5,29.86,SSE,157,6.3,-999.0,57,-99.99,,,0.00,Acu-Link.com,2013-05-21 19:45:00,
2013-05-21 13:00:00,70.0,53.6,29.86,SSE,157,2.2,-999.0,56,-99.99,,,0.00,Acu-Link.com,2013-05-21 20:00:00,
2013-05-21 13:15:00,72.1,53.0,29.86,West,270,2.2,-999.0,51,-99.99,,,0.00,Acu-Link.com,2013-05-21 20:15:00,